STARLINK-35427, 66110

Orbit data source: Space-Track

STARLINK-35427, 66110 is a payload satellite owned by SpaceX/Seattle (US) in LEO that was launched on Sun, 19 Oct 2025 UTC via an FALCON 9 launch vehicle from the Air Force Western Test Range (AFWTR). Payload-class satellites include a variety of spacecraft equipped with specific instruments for various scientific and technological missions. These include communications satellites like Starlink; space stations such as the ISS; scientific satellites like the Hubble; Earth observation satellites from companies like Planet Labs, Umbra, and HawkEye 360; GPS; miniature CubeSats for education and research; and military/defense satellites.

Loading next visibility...
Identifier
66110, 2025-236AA
Orbit
LEO
Country
Flag of USUS
Related business
Manufacturer
SpaceX/Seattle
Mission
Operational Commercial Communications
Bus & Motor
STARLINK V2MO, Unknown motor
Mass
575 kg wet, ~530 kg dry
Launch date (UTC)
2025-10-19 (6 months ago)
Launch vehicle
FALCON 9
Launch site
Air Force Western Test Range (AFWTR)
Object type
Payload
Rocket body
Debris
Shape & HBR
Box + 2 Pan, 17.7 m
Radar Cross Section
36.964 m²

Expand to show TLE details & history
Last TLE update: 14 hours ago

TLE from 14 hours ago
0 STARLINK-35427
1 66110U 25236AA  26095.10283845  .00029482  00000-0  10047-2 0  9994
2 66110  53.1590 341.5337 0001477  98.4071 261.7097 15.30164237 26982
Epoch: 2026-04-05T02:28Z
TLE epoch observation values (Epoch: 2026-04-05T02:28:05.242Z)
Latitude
-0.00002°
Longitude
111.09877°
Altitude
476.368 km
Speed
7.629 km/s
True Right ascension
22h 46m 08s
True Declination
0° 00' 00"
Sunlit
Object was in daylight at epoch
Visualization orbit readout
Latitude
Unknown
Longitude
Unknown
Altitude
Unknown
Speed
Unknown
Apparent Right ascension
Unknown
Apparent Declination
Unknown
Sunlit
N/A
Visualization observer readout
Local Sidereal Time
21:54:11
Azimuth
Unknown
Elevation
Unknown
Doppler factor
Unknown
Orbital elements
Apogee altitude
476.591 km
Perigee altitude
474.566 km
Semi-major axis
6,853.715 km
Eccentricity
0.00015
Inclination
53.159°
RAAN
341.5337°
Arg. of periapsis
98.4071°
True anomaly
261.69295°
Mean anomaly
261.7097°
Eccentric anomaly
261.70133°
Mean motion
3.8252 °/min
Orbital period
94.11 mins
BSTAR
0.0010047
Loading maneuver chart data...
Computing Atmospheric mass density...
Loading historical data...
Loading historical data...
Loading historical data...
Loading historical data...
Loading historical data...
Loading historical data...
Loading historical data...

Documentation

Showing up to 5 results
|